Terminal Aerodrome Forecast
Issued by NWS

Home | Current Version | Previous Version | Text Only | Print | Product List | Glossary On
Versions: 1 2 3 4 5 6 7 8 9 10 11 12 13 14 15 16 17 18 19 20 21
000
FTUS43 KBIS 020902 AAB
TAFJMS
TAF AMD
KJMS 020902Z 0209/0306 15005KT P6SM SKC
     FM021700 15012G20KT P6SM SKC
     FM022300 15009KT P6SM FEW100=

USA.gov is the U.S. government's official web portal to all federal, state and local government web resources and services.